This is the latest recevied weather packets stored in our database for station/object EA1IOS-11. If no packets are shown the sender has not sent any weather packets the latest 10 day(s).
| Time | Temp. | Humidity | Pressure | Rain* | Wind** | Luminosity | Snow |
|---|---|---|---|---|---|---|---|
| 1777613440 | 13.33° C | 91% | 1020.2 hPa | 0 mm | - | - | - |
| 1777609249 | 13.33° C | 93% | 1020.2 hPa | 0 mm | - | - | - |
| 1777603268 | 15.56° C | 90% | 1020.2 hPa | 0 mm | - | - | - |
| 1777602080 | 15.56° C | 90% | 1020.2 hPa | 0 mm | - | - | - |
| 1777597228 | 15.56° C | 88% | 1020.2 hPa | 0 mm | - | - | - |
| 1777596622 | 15.56° C | 87% | 1020.3 hPa | 0 mm | - | - | - |
| 1777590037 | 16.11° C | 82% | 1020.7 hPa | 0 mm | - | - | - |
| 1777589432 | 16.11° C | 82% | 1020.6 hPa | 0 mm | - | - | - |
| 1777588224 | 16.11° C | 84% | 1020.5 hPa | 0 mm | - | - | - |
| 1777579823 | 16.67° C | 85% | 1020.2 hPa | 0 mm | - | - | - |
| 1777578675 | 16.67° C | 85% | 1020.1 hPa | 0 mm | - | - | - |
| 1777578071 | 16.67° C | 85% | 1019.9 hPa | 0 mm | - | - | - |
| 1777572652 | 16.67° C | 84% | 1019.2 hPa | 0 mm | - | - | - |
| 1777572027 | 17.22° C | 83% | 1019.2 hPa | 0 mm | - | - | - |
| 1777570275 | 17.22° C | 81% | 1019.3 hPa | 0 mm | - | - | - |
| 1777569087 | 17.78° C | 80% | 1019.2 hPa | 0 mm | - | - | - |
| 1777564836 | 17.78° C | 81% | 1018.7 hPa | 0 mm | - | - | - |
| 1777561875 | 17.78° C | 81% | 1018.4 hPa | 0 mm | - | - | - |
| 1777560666 | 17.78° C | 79% | 1018.5 hPa | 0 mm | - | - | - |
| 1777559457 | 18.89° C | 77% | 1018.1 hPa | 0 mm | - | - | - |
| 1777555248 | 18.33° C | 77% | 1017.9 hPa | 0 mm | - | - | - |
| 1777552268 | 18.33° C | 78% | 1017.4 hPa | 0 mm | - | - | - |
| 1777551684 | 17.78° C | 78% | 1017.5 hPa | 0 mm | - | - | - |
| 1777542653 | 18.33° C | 78% | 1016.8 hPa | 0 mm | - | - | - |
| 1777540225 | 18.89° C | 78% | 1016.3 hPa | 0 mm | - | - | - |
* Rain latest hour (hover to see other rain measurements)
** Current wind speed in m/s (hover to see current wind gust speed)